Location: Unspecified
(0.0000°N, 0.0000°E)
Time: 20:45:29
(UTC+02:00)

ISS - All Passes

Search period start: 25 July 2017 00:00
Search period end: 04 August 2017 00:00
Orbit: 400 x 408 km, 51.6° (Epoch: 25 July)

Date Brightness Start Highest point End Pass type
(mag) Time Alt. Az. Time Alt. Az. Time Alt. Az.
25 Jul - 06:43:20 10° NNE 06:44:28 11° NE 06:45:35 10° ENE visible
25 Jul - 08:18:11 10° WNW 08:20:44 21° SW 08:23:18 10° S daylight
25 Jul - 19:51:41 10° WSW 19:54:40 33° NW 19:57:38 10° NNE daylight
26 Jul - 07:25:14 10° NW 07:28:27 60° SW 07:31:41 10° SSE visible
26 Jul - 18:59:08 10° SSW 19:02:24 75° SE 19:05:38 10° NE daylight
27 Jul - 06:33:04 10° NNW 06:36:10 41° NE 06:39:17 10° SE visible
27 Jul - 18:07:21 10° S 18:10:06 25° SE 18:12:50 10° ENE daylight
28 Jul - 05:41:49 10° NNE 05:43:52 16° NE 05:45:55 10° E visible
28 Jul - 07:18:07 10° W 07:20:08 15° SW 07:22:09 10° SSW visible
28 Jul - 18:51:21 10° WSW 18:54:03 24° NW 18:56:44 10° N daylight
29 Jul - 06:24:43 10° NW 06:27:48 40° SW 06:30:55 10° SSE visible
29 Jul - 17:58:28 10° SW 18:01:44 72° NW 18:04:57 10° NNE daylight
30 Jul - 05:32:16 10° NNW 05:35:29 62° NE 05:38:43 10° SE night (unlit)
30 Jul - 17:06:23 10° SSW 17:09:24 35° SE 17:12:24 10° ENE daylight
31 Jul - 04:40:36 10° N 04:43:09 21° NE 04:45:42 10° ESE night (unlit)
31 Jul - 06:18:23 10° WSW 06:19:26 11° SW 06:20:27 10° SW night (unlit)
31 Jul - 16:15:19 10° SSE 16:17:02 14° SE 16:18:46 10° E daylight
31 Jul - 17:51:02 10° W 17:53:18 17° NW 17:55:33 10° N daylight
01 Aug - 05:24:11 10° WNW 05:27:03 28° SW 05:29:55 10° S night (unlit)
01 Aug - 16:57:47 10° SW 17:00:56 48° NW 17:04:05 10° NNE daylight
02 Aug - 04:31:26 10° NW 04:34:41 88° WSW 04:37:57 10° SE night (unlit)
02 Aug - 16:05:23 10° SSW 16:08:35 51° SE 16:11:45 10° NE daylight
03 Aug - 03:39:26 10° N 03:42:18 29° NE 03:45:12 10° ESE night (unlit)
03 Aug - 15:13:49 10° S 15:16:12 18° SE 15:18:33 10° E daylight
03 Aug - 16:50:53 10° W 16:52:26 13° NW 16:54:01 10° NNW daylight
